STARLINK-38159, 100186

Orbit data source: Space-Track

STARLINK-38159, 100186 is a payload satellite owned by SpaceX/Seattle (US) in SSO that was launched on Sat, 01 Aug 2026 UTC launched from the Air Force Western Test Range (AFWTR). Payload-class satellites include a variety of spacecraft equipped with specific instruments for various scientific and technological missions. These include communications satellites like Starlink; space stations such as the ISS; scientific satellites like the Hubble; Earth observation satellites from companies like Planet Labs, Umbra, and HawkEye 360; GPS; miniature CubeSats for education and research; and military/defense satellites.

Loading next visibility...
Identifier
100186, 2026-175H
Orbit
SSO
Country
Flag of USUS
Related business
Manufacturer
SpaceX/Seattle
Mission
Operational spacecraft
Bus & Motor
STARLINK V2MO, Unknown motor
Mass
575 kg wet, ~530 kg dry
Launch date (UTC)
2026-08-01 (2 months ago)
Launch vehicle
Unknown
Launch site
Air Force Western Test Range (AFWTR)
Object type
Payload
Rocket body
Debris
Shape & HBR
BOX + PAN, 17.7 m
Radar Cross Section
Large (>1 m²)

Expand to show TLE details & history
Last TLE update: 16 hours ago

TLE from 16 hours ago
0 STARLINK-38159
1 A0186U 26175H   26263.53214616  .00191017  00000-0  12539-2 0  9994
2 A0186  97.2838 106.0064 0002609 115.0552 245.0984 15.75173106  9183
Epoch: 2026-09-20T12:46Z
TLE epoch observation values (Epoch: 2026-09-20T12:46:17.428Z)
Latitude
-0.00004°
Longitude
-84.99119°
Altitude
348.046 km
Speed
7.7 km/s
True Right ascension
07h 04m 01s
True Declination
0° 00' 00"
Sunlit
Object was in daylight at epoch
Visualization orbit readout
Latitude
Unknown
Longitude
Unknown
Altitude
Unknown
Speed
Unknown
Apparent Right ascension
Unknown
Apparent Declination
Unknown
Sunlit
N/A
Visualization observer readout
Local Sidereal Time
22:07:00
Azimuth
Unknown
Elevation
Unknown
Doppler factor
Unknown
Orbital elements
Apogee altitude
342.779 km
Perigee altitude
339.273 km
Semi-major axis
6,719.163 km
Eccentricity
0.00026
Inclination
97.2838°
RAAN
106.0064°
Arg. of periapsis
115.0552°
True anomaly
245.07129°
Mean anomaly
245.0984°
Eccentric anomaly
245.08484°
Mean motion
3.94067 °/min
Orbital period
91.35 mins
BSTAR
0.0012539
Loading maneuver chart data...
Computing Atmospheric mass density...
Loading historical data...
Loading historical data...
Loading historical data...
Loading historical data...
Loading historical data...
Loading historical data...
Loading historical data...

Documentation

Showing up to 5 results
|